Location: Newark
(47.5500°N, 8.6167°E)
Time: 15:02:32
(UTC+00:00)

ISS - Visible Passes

Search period start: 29 January 2020 00:00
Search period end: 08 February 2020 00:00
Orbit: 416 x 423 km, 51.6° (Epoch: 30 January)

Date Brightness Start Highest point End Pass type
(mag) Time Alt. Az. Time Alt. Az. Time Alt. Az.
29 Jan -2.9 18:17:58 10° WNW 18:21:02 39° N 18:21:02 39° N visible
30 Jan -2.9 17:30:19 10° WNW 17:33:32 39° N 17:35:26 20° ENE visible
30 Jan -1.0 19:07:19 10° WNW 19:08:24 19° WNW 19:08:24 19° WNW visible
31 Jan -3.2 18:19:44 10° WNW 18:22:49 48° N 18:22:49 48° N visible
01 Feb -3.1 17:32:07 10° WNW 17:35:23 43° N 17:37:17 21° ENE visible
01 Feb -1.2 19:08:58 10° WNW 19:10:15 21° WNW 19:10:15 21° WNW visible
02 Feb -3.9 18:21:22 10° WNW 18:24:44 82° NNE 18:24:44 82° NNE visible
03 Feb -3.7 17:33:45 10° WNW 17:37:07 62° NNE 17:39:20 20° E visible
03 Feb -1.2 19:10:45 10° W 19:12:18 21° W 19:12:18 21° W visible
04 Feb -3.0 18:22:59 10° WNW 18:26:17 47° SSW 18:26:59 40° S visible
05 Feb -3.5 17:35:19 10° WNW 17:38:41 71° SSW 17:41:48 12° SE visible
05 Feb -0.8 19:13:13 10° WSW 19:14:47 14° SW 19:14:47 14° SW visible
06 Feb -1.4 18:24:57 10° W 18:27:33 21° SW 18:29:47 12° S visible
07 Feb -2.0 17:37:00 10° W 17:40:03 31° SW 17:43:05 10° SSE visible
